カタログに戻る

COSMOS 1524

運用中ナビゲーションLEO
NORAD 14613·PAYLOAD·🇷🇺 Russia

打ち上げ Jan 5, 1984 から Plesetsk Cosmodrome

Loading…

次のパス (今後24時間)

TLE

最新Source: Space-Track

元期: Sep 14, 2026, 12:28 UTC

1 14613U 84001C   26257.51949863 -.00000018  00000-0 -81336-5 0  9992
2 14613  74.0066 289.4629 0031641 170.6454 343.0158 12.56748465958523

AllMySatでCOSMOS 1524をリアルタイム追跡

Download on the App Store